Location: Unspecified
(0.0000°N, 0.0000°E)
Time: 18:47:09
(UTC+00:00)

Tiangong 2 - Pass Details

Date: 21 November 2017
Orbit: 386 x 391 km, 42.8° (Epoch: 20 November)

Event Time Altitude Azimuth Distance (km) Brightness Sun altitude
Rises 04:59:39 0° 215° (SW) 2,263 4.8 -10.9°
Reaches altitude 10° 05:01:47 10° 208° (SSW) 1,409 3.8 -10.4°
Maximum altitude 05:04:49 42° 135° (SE) 563 2.5 -9.6°
Drops below altitude 10° 05:07:51 10° 62° (ENE) 1,406 4.5 -8.9°
Sets 05:09:59 0° 55° (NE) 2,259 5.5 -8.4°
